Weather reports worldwide

Advertisment
Verhnedvinsk, Belarus (26554): temperature & dewpoint: 20.05.2019 21:00:00 - 26.05.2019 21:00:00 (MSK)Verhnedvinsk, Belarus (26554): wind speed: 20.05.2019 21:00:00 - 26.05.2019 21:00:00 (MSK)Verhnedvinsk, Belarus (26554): wind direction: 20.05.2019 21:00:00 - 26.05.2019 21:00:00 (MSK)Verhnedvinsk, Belarus (26554): reduced air pressure: 20.05.2019 21:00:00 - 26.05.2019 21:00:00 (MSK)Verhnedvinsk, Belarus (26554): visibility: 20.05.2019 21:00:00 - 26.05.2019 21:00:00 (MSK)
Date & Time tt [°C] td [°C] ff [km/h] ff [kn] dd ppp [hPa] vv [km]
26.05.2019 21:00:00 - - - - - - -
26.05.2019 20:00:00 - - - - - - -
26.05.2019 19:00:00 - - - - - - -
26.05.2019 18:00:00 15,5 7,5 22 12 WSW 1006,2 20
26.05.2019 17:00:00 - - - - - - -
26.05.2019 16:00:00 - - - - - - -
26.05.2019 15:00:00 15,7 7,4 18 10 WSW 1006,7 20
26.05.2019 14:00:00 - - - - - - -
26.05.2019 13:00:00 - - - - - - -
26.05.2019 12:00:00 14,5 7,8 14 8 WSW 1007,5 20
26.05.2019 11:00:00 - - - - - - -
26.05.2019 10:00:00 - - - - - - -
26.05.2019 09:00:00 11,4 9,2 11 6 W 1008,2 17
26.05.2019 08:00:00 - - - - - - -
26.05.2019 07:00:00 - - - - - - -
26.05.2019 06:00:00 8,8 7,6 7 4 W 1008,4 15
26.05.2019 05:00:00 - - - - - - -
26.05.2019 04:00:00 - - - - - - -
26.05.2019 03:00:00 9,1 6,8 7 4 W 1007,6 15
26.05.2019 02:00:00 - - - - - - -
26.05.2019 01:00:00 - - - - - - -
26.05.2019 00:00:00 12,2 7,3 7 4 W 1007,3 20
25.05.2019 23:00:00 - - - - - - -
25.05.2019 22:00:00 - - - - - - -
25.05.2019 21:00:00 17,1 10,3 14 8 WNW 1005,5 20
25.05.2019 20:00:00 - - - - - - -
25.05.2019 19:00:00 - - - - - - -
25.05.2019 18:00:00 19,9 9,1 18 10 WSW 1005,0 20
25.05.2019 17:00:00 - - - - - - -
25.05.2019 16:00:00 - - - - - - -
25.05.2019 15:00:00 21,2 9,2 18 10 W 1005,6 20
25.05.2019 14:00:00 - - - - - - -
25.05.2019 13:00:00 - - - - - - -
25.05.2019 12:00:00 19,4 11,9 14 8 WSW 1006,5 15
25.05.2019 11:00:00 - - - - - - -
25.05.2019 10:00:00 - - - - - - -
25.05.2019 09:00:00 17,1 10,4 7 4 W 1007,0 15
25.05.2019 08:00:00 - - - - - - -
25.05.2019 07:00:00 - - - - - - -
25.05.2019 06:00:00 13,1 12,9 4 2 W 1007,5 4,0
25.05.2019 05:00:00 - - - - - - -
25.05.2019 04:00:00 - - - - - - -
25.05.2019 03:00:00 13,2 12,8 4 2 W 1007,9 5
25.05.2019 02:00:00 - - - - - - -
25.05.2019 01:00:00 - - - - - - -
25.05.2019 00:00:00 14,6 13,4 7 4 WNW 1009,1 10
24.05.2019 23:00:00 - - - - - - -
24.05.2019 22:00:00 - - - - - - -
24.05.2019 21:00:00 17,8 15,0 4 2 WNW 1008,6 12
24.05.2019 20:00:00 - - - - - - -
24.05.2019 19:00:00 - - - - - - -
24.05.2019 18:00:00 20,1 15,8 7 4 NW 1008,8 20
24.05.2019 17:00:00 - - - - - - -
24.05.2019 16:00:00 - - - - - - -
24.05.2019 15:00:00 23,2 14,6 0 0 N 1008,3 20
24.05.2019 14:00:00 - - - - - - -
24.05.2019 13:00:00 - - - - - - -
24.05.2019 12:00:00 19,5 15,5 0 0 N 1009,5 15
24.05.2019 11:00:00 - - - - - - -
24.05.2019 10:00:00 - - - - - - -
24.05.2019 09:00:00 17,3 15,7 0 0 N 1009,2 9
24.05.2019 08:00:00 - - - - - - -
24.05.2019 07:00:00 - - - - - - -
24.05.2019 06:00:00 14,7 14,3 0 0 N 1009,2 6
24.05.2019 05:00:00 - - - - - - -
24.05.2019 04:00:00 - - - - - - -
24.05.2019 03:00:00 14,5 14,0 4 2 N 1008,6 10
24.05.2019 02:00:00 - - - - - - -
24.05.2019 01:00:00 - - - - - - -
24.05.2019 00:00:00 16,5 14,1 4 2 N 1008,3 13
23.05.2019 23:00:00 - - - - - - -
23.05.2019 22:00:00 - - - - - - -
23.05.2019 21:00:00 18,4 14,1 7 4 W 1008,0 15
23.05.2019 20:00:00 - - - - - - -
23.05.2019 19:00:00 - - - - - - -
23.05.2019 18:00:00 21,3 15,4 14 8 W 1006,5 20
23.05.2019 17:00:00 - - - - - - -
23.05.2019 16:00:00 - - - - - - -
23.05.2019 15:00:00 25,4 16,7 14 8 W 1005,6 20
23.05.2019 14:00:00 - - - - - - -
23.05.2019 13:00:00 - - - - - - -
23.05.2019 12:00:00 23,6 15,8 14 8 W 1006,8 20
23.05.2019 11:00:00 - - - - - - -
23.05.2019 10:00:00 - - - - - - -
23.05.2019 09:00:00 18,4 15,3 7 4 W 1007,0 10
23.05.2019 08:00:00 - - - - - - -
23.05.2019 07:00:00 - - - - - - -
23.05.2019 06:00:00 11,7 11,3 4 2 NW 1007,3 3,6
23.05.2019 05:00:00 - - - - - - -
23.05.2019 04:00:00 - - - - - - -
23.05.2019 03:00:00 12,8 12,4 4 2 SW 1007,4 4,0
23.05.2019 02:00:00 - - - - - - -
23.05.2019 01:00:00 - - - - - - -
23.05.2019 00:00:00 14,3 14,1 4 2 E 1007,8 6
22.05.2019 23:00:00 - - - - - - -
22.05.2019 22:00:00 - - - - - - -
22.05.2019 21:00:00 18,6 14,1 0 0 N 1007,5 15
22.05.2019 20:00:00 - - - - - - -
22.05.2019 19:00:00 - - - - - - -
22.05.2019 18:00:00 24,2 13,3 4 2 E 1007,1 20
22.05.2019 17:00:00 - - - - - - -
22.05.2019 16:00:00 - - - - - - -
22.05.2019 15:00:00 23,7 13,5 11 6 ESE 1008,2 20
22.05.2019 14:00:00 - - - - - - -
22.05.2019 13:00:00 - - - - - - -
22.05.2019 12:00:00 22,8 14,3 7 4 ESE 1009,1 20
22.05.2019 11:00:00 - - - - - - -
22.05.2019 10:00:00 - - - - - - -
22.05.2019 09:00:00 18,6 12,4 4 2 SE 1009,7 17
22.05.2019 08:00:00 - - - - - - -
22.05.2019 07:00:00 - - - - - - -
22.05.2019 06:00:00 11,3 10,6 4 2 E 1010,3 12
22.05.2019 05:00:00 - - - - - - -
22.05.2019 04:00:00 - - - - - - -
22.05.2019 03:00:00 12,5 10,5 7 4 E 1010,4 15
22.05.2019 02:00:00 - - - - - - -
22.05.2019 01:00:00 - - - - - - -
22.05.2019 00:00:00 17,4 10,7 4 2 S 1011,0 20
21.05.2019 23:00:00 - - - - - - -
21.05.2019 22:00:00 - - - - - - -
21.05.2019 21:00:00 19,1 11,6 7 4 ESE 1010,2 20
21.05.2019 20:00:00 - - - - - - -
21.05.2019 19:00:00 - - - - - - -
21.05.2019 18:00:00 25,6 9,9 14 8 SE 1010,3 20
21.05.2019 17:00:00 - - - - - - -
21.05.2019 16:00:00 - - - - - - -
21.05.2019 15:00:00 26,1 11,9 18 10 SSE 1011,7 20
21.05.2019 14:00:00 - - - - - - -
21.05.2019 13:00:00 - - - - - - -
21.05.2019 12:00:00 24,5 12,3 14 8 SE 1012,3 20
21.05.2019 11:00:00 - - - - - - -
21.05.2019 10:00:00 - - - - - - -
21.05.2019 09:00:00 16,8 10,7 7 4 ESE 1013,8 15
21.05.2019 08:00:00 - - - - - - -
21.05.2019 07:00:00 - - - - - - -
21.05.2019 06:00:00 14,1 10,2 7 4 ESE 1014,2 15
21.05.2019 05:00:00 - - - - - - -
21.05.2019 04:00:00 - - - - - - -
21.05.2019 03:00:00 15,8 9,5 7 4 SE 1014,6 12
21.05.2019 02:00:00 - - - - - - -
21.05.2019 01:00:00 - - - - - - -
21.05.2019 00:00:00 16,3 10,4 14 8 ESE 1014,7 15
20.05.2019 23:00:00 - - - - - - -
20.05.2019 22:00:00 - - - - - - -
20.05.2019 21:00:00 21,2 9,4 11 6 SE 1014,2 20

tt = temperature
td = dewpoint
ff = wind speed
dd = wind direction
ppp = reduced air pressure
vv = visibility

Next stations